Main page
Satellite images Climate Cyclones Lightning AirportsFAQ Languages Contact Newsletter About
Weather : Europe Africa North America South America Asia Australia-Oceania Others

, Da Nang, Da Nang International Airport

latitude: , longitude: Vietnam, elevation: 16-02N m


METAR: VVDN 211700Z 32004KT 280V360 6000 -RA FEW013 FEW017CB BKN060 25/23 Q1009 TEMPO 3000 SHRA